When you browse on this site, cookies collect data to enhance your experience and personalize the content and advertising you see.
Visit our Privacy Policy to learn more. By continuing to use the site, you agree to this use of cookies and data.
  • In Switzerland
  • List of Countries
  • For 7 days
  • Water Temperature
  • Satellite Maps
  • Weather Map
  • Weather Widgets
  • user-avatar
    Login

    Hourly Weather Malanje

    Today, 16 June, Sunday

    Time Temperature Precipitation Wind Pressure Humidity
    00:00 +16°C° 0 mm 1 mps 666 mmHg 40%
    01:00 +14°C° 0 mm 0 mps 666 mmHg 42%
    02:00 +15°C° 0 mm 1 mps 666 mmHg 44%
    03:00 +14°C° 0 mm 1 mps 666 mmHg 45%
    04:00 +13°C° 0 mm 1 mps 665 mmHg 47%
    05:00 +14°C° 0 mm 1 mps 666 mmHg 47%
    06:00 +14°C° 0 mm 1 mps 666 mmHg 47%
    07:00 +14°C° 0 mm 2 mps 667 mmHg 46%
    08:00 +18°C° 0 mm 2 mps 668 mmHg 41%
    09:00 +21°C° 0 mm 2 mps 668 mmHg 35%
    10:00 +25°C° 0 mm 2 mps 669 mmHg 30%
    11:00 +27°C° 0 mm 2 mps 669 mmHg 26%
    12:00 +30°C° 0 mm 1 mps 669 mmHg 22%
    13:00 +32°C° 0 mm 1 mps 669 mmHg 18%
    14:00 +31°C° 0 mm 1 mps 668 mmHg 18%
    15:00 +31°C° 0 mm 1 mps 667 mmHg 18%
    16:00 +30°C° 0 mm 1 mps 667 mmHg 19%
    17:00 +27°C° 0 mm 1 mps 667 mmHg 23%
    18:00 +24°C° 0 mm 1 mps 667 mmHg 27%
    19:00 +21°C° 0 mm 1 mps 667 mmHg 31%
    20:00 +21°C° 0 mm 1 mps 667 mmHg 33%
    21:00 +20°C° 0 mm 1 mps 667 mmHg 34%
    22:00 +19°C° 0 mm 1 mps 667 mmHg 35%
    23:00 +18°C° 0 mm 1 mps 667 mmHg 38%

    Tomorrow, 17 June, Monday

    Time Temperature Precipitation Wind Pressure Humidity
    00:00 +18°C° 0 mm 1 mps 667 mmHg 40%
    01:00 +16°C° 0 mm 1 mps 667 mmHg 42%
    02:00 +15°C° 0 mm 1 mps 667 mmHg 44%
    03:00 +15°C° 0 mm 1 mps 666 mmHg 46%
    04:00 +14°C° 0 mm 1 mps 666 mmHg 49%
    05:00 +14°C° 0 mm 1 mps 667 mmHg 49%
    06:00 +14°C° 0 mm 1 mps 667 mmHg 49%
    07:00 +15°C° 0 mm 1 mps 668 mmHg 49%
    08:00 +18°C° 0 mm 2 mps 669 mmHg 43%
    09:00 +21°C° 0 mm 2 mps 669 mmHg 38%
    10:00 +26°C° 0 mm 2 mps 670 mmHg 32%
    11:00 +27°C° 0 mm 2 mps 670 mmHg 28%
    12:00 +29°C° 0 mm 2 mps 669 mmHg 25%
    13:00 +31°C° 0 mm 2 mps 669 mmHg 21%
    14:00 +31°C° 0 mm 2 mps 668 mmHg 21%
    15:00 +30°C° 0 mm 2 mps 668 mmHg 21%
    16:00 +30°C° 0 mm 2 mps 667 mmHg 21%
    17:00 +27°C° 0 mm 1 mps 667 mmHg 25%
    18:00 +25°C° 0 mm 1 mps 666 mmHg 30%
    19:00 +22°C° 0 mm 1 mps 666 mmHg 34%
    20:00 +21°C° 0 mm 1 mps 666 mmHg 36%
    21:00 +20°C° 0 mm 1 mps 667 mmHg 37%
    22:00 +19°C° 0 mm 1 mps 667 mmHg 39%
    23:00 +19°C° 0 mm 1 mps 667 mmHg 40%

    Day after tomorrow, 18 June, Tuesday

    Time Temperature Precipitation Wind Pressure Humidity
    00:00 +18°C° 0 mm 1 mps 667 mmHg 41%
    01:00 +16°C° 0 mm 1 mps 667 mmHg 43%
    02:00 +16°C° 0 mm 1 mps 666 mmHg 45%
    03:00 +15°C° 0 mm 1 mps 666 mmHg 47%
    04:00 +14°C° 0 mm 1 mps 666 mmHg 49%
    05:00 +14°C° 0 mm 1 mps 667 mmHg 51%
    06:00 +15°C° 0 mm 1 mps 667 mmHg 53%
    07:00 +15°C° 0 mm 2 mps 667 mmHg 55%
    08:00 +18°C° 0 mm 2 mps 668 mmHg 47%
    09:00 +22°C° 0 mm 3 mps 669 mmHg 39%
    10:00 +26°C° 0 mm 3 mps 670 mmHg 31%
    11:00 +28°C° 0 mm 3 mps 669 mmHg 28%
    12:00 +30°C° 0 mm 2 mps 669 mmHg 25%
    13:00 +31°C° 0 mm 2 mps 669 mmHg 22%
    14:00 +31°C° 0 mm 2 mps 668 mmHg 22%
    15:00 +31°C° 0 mm 2 mps 668 mmHg 22%
    16:00 +30°C° 0 mm 2 mps 667 mmHg 22%
    17:00 +28°C° 0 mm 2 mps 667 mmHg 27%
    18:00 +25°C° 0 mm 1 mps 666 mmHg 31%
    19:00 +22°C° 0 mm 1 mps 666 mmHg 36%
    20:00 +21°C° 0 mm 1 mps 666 mmHg 38%
    21:00 +20°C° 0 mm 1 mps 667 mmHg 39%
    22:00 +20°C° 0 mm 1 mps 667 mmHg 40%
    23:00 +19°C° 0 mm 1 mps 667 mmHg 41%

    19 June, Wednesday

    Time Temperature Precipitation Wind Pressure Humidity
    00:00 +19°C° 0 mm 1 mps 667 mmHg 43%
    01:00 +18°C° 0 mm 1 mps 667 mmHg 44%
    02:00 +16°C° 0 mm 1 mps 666 mmHg 46%
    03:00 +15°C° 0 mm 1 mps 666 mmHg 49%
    04:00 +14°C° 0 mm 2 mps 666 mmHg 51%
    05:00 +15°C° 0 mm 2 mps 667 mmHg 52%
    06:00 +15°C° 0 mm 2 mps 667 mmHg 53%
    07:00 +15°C° 0 mm 2 mps 667 mmHg 54%
    08:00 +18°C° 0 mm 3 mps 668 mmHg 46%
    09:00 +22°C° 0 mm 3 mps 669 mmHg 39%
    10:00 +26°C° 0 mm 4 mps 670 mmHg 31%
    11:00 +28°C° 0 mm 3 mps 669 mmHg 28%
    12:00 +30°C° 0 mm 2 mps 669 mmHg 24%
    13:00 +32°C° 0 mm 2 mps 669 mmHg 20%
    14:00 +31°C° 0 mm 2 mps 668 mmHg 20%
    15:00 +31°C° 0 mm 2 mps 668 mmHg 20%
    16:00 +31°C° 0 mm 2 mps 667 mmHg 20%
    17:00 +28°C° 0 mm 1 mps 667 mmHg 25%
    18:00 +25°C° 0 mm 1 mps 667 mmHg 30%
    19:00 +22°C° 0 mm 1 mps 667 mmHg 35%
    20:00 +21°C° 0 mm 1 mps 667 mmHg 37%
    21:00 +20°C° 0 mm 1 mps 667 mmHg 38%
    22:00 +20°C° 0 mm 1 mps 667 mmHg 40%
    23:00 +19°C° 0 mm 1 mps 667 mmHg 41%

    20 June, Thursday

    Time Temperature Precipitation Wind Pressure Humidity
    00:00 +19°C° 0 mm 1 mps 667 mmHg 41%
    01:00 +18°C° 0 mm 1 mps 667 mmHg 42%
    02:00 +16°C° 0 mm 1 mps 667 mmHg 44%
    03:00 +15°C° 0 mm 1 mps 666 mmHg 46%
    04:00 +15°C° 0 mm 1 mps 666 mmHg 49%
    05:00 +15°C° 0 mm 2 mps 667 mmHg 49%
    06:00 +15°C° 0 mm 2 mps 667 mmHg 50%
    07:00 +15°C° 0 mm 2 mps 667 mmHg 50%
    08:00 +19°C° 0 mm 3 mps 668 mmHg 43%
    09:00 +22°C° 0 mm 3 mps 669 mmHg 36%
    10:00 +27°C° 0 mm 4 mps 670 mmHg 29%
    11:00 +28°C° 0 mm 3 mps 669 mmHg 26%
    12:00 +30°C° 0 mm 3 mps 669 mmHg 23%
    13:00 +32°C° 0 mm 2 mps 668 mmHg 19%
    14:00 +31°C° 0 mm 2 mps 668 mmHg 19%
    15:00 +31°C° 0 mm 2 mps 667 mmHg 19%
    16:00 +31°C° 0 mm 1 mps 667 mmHg 19%
    17:00 +28°C° 0 mm 1 mps 667 mmHg 23%
    18:00 +25°C° 0 mm 1 mps 666 mmHg 28%
    19:00 +22°C° 0 mm 1 mps 666 mmHg 32%
    20:00 +22°C° 0 mm 1 mps 666 mmHg 33%
    21:00 +21°C° 0 mm 1 mps 667 mmHg 34%
    22:00 +20°C° 0 mm 1 mps 667 mmHg 35%
    23:00 +19°C° 0 mm 1 mps 667 mmHg 37%

    21 June, Friday

    Time Temperature Precipitation Wind Pressure Humidity
    00:00 +18°C° 0 mm 1 mps 667 mmHg 39%
    01:00 +16°C° 0 mm 1 mps 666 mmHg 40%
    02:00 +16°C° 0 mm 1 mps 666 mmHg 42%
    03:00 +15°C° 0 mm 1 mps 666 mmHg 44%
    04:00 +14°C° 0 mm 1 mps 666 mmHg 46%
    05:00 +15°C° 0 mm 2 mps 666 mmHg 47%
    06:00 +15°C° 0 mm 2 mps 667 mmHg 48%
    07:00 +15°C° 0 mm 2 mps 667 mmHg 49%
    08:00 +19°C° 0 mm 3 mps 668 mmHg 42%
    09:00 +22°C° 0 mm 3 mps 669 mmHg 35%
    10:00 +26°C° 0 mm 4 mps 669 mmHg 29%
    11:00 +28°C° 0 mm 3 mps 669 mmHg 25%
    12:00 +30°C° 0 mm 3 mps 668 mmHg 22%
    13:00 +31°C° 0 mm 2 mps 668 mmHg 19%
    14:00 +31°C° 0 mm 2 mps 667 mmHg 19%
    15:00 +31°C° 0 mm 2 mps 667 mmHg 19%
    16:00 +31°C° 0 mm 2 mps 666 mmHg 19%
    17:00 +28°C° 0 mm 1 mps 666 mmHg 23%
    18:00 +25°C° 0 mm 1 mps 665 mmHg 27%
    19:00 +22°C° 0 mm 1 mps 665 mmHg 31%
    20:00 +21°C° 0 mm 1 mps 666 mmHg 33%
    21:00 +21°C° 0 mm 1 mps 666 mmHg 34%
    22:00 +20°C° 0 mm 1 mps 666 mmHg 35%
    23:00 +19°C° 0 mm 1 mps 666 mmHg 36%
    Show more